Abbotsford, British Columbia

2:01 PM PDT on October 18, 2017 (GMT -0700)
Abbotsford

Weather History for CYXX - July, 2013

Change the Weather History Date:

Tuesday, July 9, 2013

  Actual Average Record
Temperature  
Mean Temperature 68 °F -  
Max Temperature 83 °F 74 °F 87 °F (2010)
Min Temperature 54 °F 52 °F 46 °F (2011)
Cooling Degree Days 4    
Growing Degree Days 18 (Base 50)    
Moisture  
Dew Point 58 °F    
Average Humidity 70    
Maximum Humidity 95    
Minimum Humidity 36    
Precipitation  
Precipitation 0.00 in 0.07 in - ()
Sea Level Pressure  
Sea Level Pressure 30.07 in    
Wind  
Wind Speed 3 mph ()    
Max Wind Speed 12 mph    
Max Gust Speed -    
Visibility 15.0 miles    
Events      
Averages and records for this station are not official NWS values.
T = Trace of Precipitation, MM = Missing Value Source: Averaged Metar Reports

Daily Weather History Graph

Daily Weather History Graph

Search for Another Location

Airport or City:

Trip Planner

Search our weather history database for the weather conditions in past years. The results will help you decide how hot, cold, wet, or windy it might be!

Date:

Astronomy

Jul. 09, 2013 Rise Set
Actual Time 5:15 AM PDT 9:13 PM PDT
Civil Twilight 4:34 AM PDT 9:54 PM PDT
Nautical Twilight 3:36 AM PDT 10:52 PM PDT
Astronomical Twilight 1:58 AM PDT 12:27 AM PDT
Moon 6:58 AM PDT (7/9) 9:38 PM PDT (7/9)
Length of Visible Light 17h 20m
Length of Day
15h 57m
New Moon, 2% of the Moon is Illuminated
Jul 9
New Moon
Jul 15
First Quarter
Jul 22
Full
Jul 29
Last Quarter
Aug 6
New

Hourly Weather History & Observations

Time (PDT) Temp. Heat Index Dew Point Humidity Pressure Visibility Wind Dir Wind Speed Gust Speed Precip Events Conditions
12:00 AM 62.6 °F - 55.4 °F 77% 30.10 in 15.0 mi NNE 2.3 mph - N/A   Clear
1:00 AM 60.8 °F - 57.2 °F 88% 30.10 in 15.0 mi Calm Calm - N/A   Clear
2:00 AM 59.0 °F - 55.4 °F 88% 30.10 in 15.0 mi NNW 2.3 mph - N/A   Clear
3:00 AM 59.0 °F - 55.4 °F 88% 30.10 in 15.0 mi North 2.3 mph - N/A   Clear
4:00 AM 57.2 °F - 55.4 °F 94% 30.10 in 15.0 mi WSW 2.3 mph - N/A   Clear
5:00 AM 57 °F - 56 °F 95% 30.11 in 28 mi WSW 1.2 mph - -  
5:00 AM 57.2 °F - 55.4 °F 94% 30.11 in 30.0 mi Calm Calm - N/A   Clear
6:00 AM 57.2 °F - 55.4 °F 94% 30.11 in 30.0 mi Calm Calm - N/A   Clear
7:00 AM 59.0 °F - 57.2 °F 94% 30.12 in 30.0 mi SW 4.6 mph - N/A   Clear
8:00 AM 62.6 °F - 59.0 °F 88% 30.12 in 30.0 mi Calm Calm - N/A   Clear
9:00 AM 66.2 °F - 59.0 °F 78% 30.12 in 30.0 mi South 3.5 mph - N/A   Clear
10:00 AM 69.8 °F - 60.8 °F 73% 30.12 in 30.0 mi Calm Calm - N/A   Clear
11:00 AM 73 °F - 59 °F 52% 30.11 in 28 mi NW 2.3 mph - -  
11:00 AM 73.4 °F - 59.0 °F 61% 30.11 in 30.0 mi NNE 3.5 mph - N/A   Clear
12:00 PM 75.2 °F - 59.0 °F 57% 30.10 in 30.0 mi Variable 2.3 mph - N/A   Clear
1:00 PM 77.0 °F - 59.0 °F 54% 30.09 in 30.0 mi SSW 6.9 mph - N/A   Partly Cloudy
2:00 PM 78.8 °F - 59.0 °F 51% 30.08 in 30.0 mi South 5.8 mph - N/A   Partly Cloudy
3:00 PM 82.4 °F 83.9 °F 64.4 °F 54% 30.06 in 30.0 mi Calm Calm - N/A   Partly Cloudy
4:00 PM 82.4 °F 83.4 °F 62.6 °F 51% 30.05 in 30.0 mi WSW 4.6 mph - N/A   Partly Cloudy
5:00 PM 83 °F - 60 °F 36% 30.03 in 28 mi SW 8.1 mph - -   Scattered Clouds
5:00 PM 82.4 °F 82.9 °F 60.8 °F 48% 30.03 in 30.0 mi SW 8.1 mph - N/A   Partly Cloudy
6:00 PM 82.4 °F 82.9 °F 60.8 °F 48% 30.01 in 30.0 mi SSW 11.5 mph - N/A   Partly Cloudy
7:00 PM 78.8 °F - 59.0 °F 51% 30.00 in 30.0 mi SW 11.5 mph - N/A   Clear
8:00 PM 75.2 °F - 60.8 °F 61% 29.99 in 30.0 mi SW 9.2 mph - N/A   Clear
9:00 PM 69.8 °F - 59.0 °F 68% 29.99 in 30.0 mi SW 6.9 mph - N/A   Partly Cloudy
10:00 PM 66.2 °F - 57.2 °F 73% 30.00 in 30.0 mi WSW 6.9 mph - N/A   Clear
11:00 PM 64 °F - 54 °F 63% 29.99 in 15 mi WSW 5.8 mph - -  
11:00 PM 64.4 °F - 53.6 °F 68% 29.99 in 15.0 mi WSW 4.6 mph - N/A   Clear